This is the latest recevied weather packets stored in our database for station/object KD5FHA. If no packets are shown the sender has not sent any weather packets the latest 1 day(s).
| Time | Temp. | Humidity | Pressure | Rain* | Wind** | Luminosity | Snow |
|---|---|---|---|---|---|---|---|
| 1778027780 | 27.78° C | 60% | 1006 hPa | 0 mm | 0.89 m/s, 47° | 7 W/m² | - |
| 1778027476 | 28.33° C | 61% | 1005.8 hPa | 0 mm | 0.89 m/s, 351° | 8 W/m² | - |
| 1778027172 | 28.33° C | 62% | 1005.8 hPa | 0 mm | 1.79 m/s, 295° | 17 W/m² | - |
| 1778026868 | 28.89° C | 70% | 1005.9 hPa | 0 mm | 0.89 m/s, 266° | 19 W/m² | - |
| 1778026565 | 29.44° C | 69% | 1005.9 hPa | 0 mm | 0 m/s | 31 W/m² | - |
| 1778026262 | 28.89° C | 69% | 1005.8 hPa | 0 mm | 0.45 m/s, 284° | 54 W/m² | - |
| 1778025959 | 28.89° C | 69% | 1005.7 hPa | 0 mm | 0.45 m/s, 258° | 32 W/m² | - |
| 1778025656 | 28.89° C | 69% | 1005.6 hPa | 0 mm | 0.89 m/s, 185° | 43 W/m² | - |
| 1778025354 | 28.89° C | 69% | 1005.1 hPa | 0 mm | 0.45 m/s, 174° | 75 W/m² | - |
| 1778025051 | 28.89° C | 69% | 1005.4 hPa | 0 mm | 2.24 m/s, 207° | 68 W/m² | - |
| 1778024748 | 28.89° C | 69% | 1005.3 hPa | 0 mm | 1.79 m/s, 201° | 68 W/m² | - |
| 1778024445 | 29.44° C | 69% | 1005.2 hPa | 0 mm | 4.47 m/s, 202° | 65 W/m² | - |
| 1778024142 | 29.44° C | 69% | 1005.2 hPa | 0 mm | 0.89 m/s, 163° | 74 W/m² | - |
| 1778023840 | 29.44° C | 69% | 1005.3 hPa | 0 mm | 2.24 m/s, 210° | 123 W/m² | - |
| 1778023537 | 29.44° C | 68% | 1005.2 hPa | 0 mm | 0.45 m/s, 162° | 140 W/m² | - |
| 1778023235 | 30° C | 68% | 1005 hPa | 0 mm | 0.89 m/s, 198° | 141 W/m² | - |
| 1778022931 | 30° C | 68% | 1005 hPa | 0 mm | 0.89 m/s, 151° | 166 W/m² | - |
| 1778022630 | 30° C | 68% | 1005.1 hPa | 0 mm | 1.34 m/s, 161° | 178 W/m² | - |
| 1778022327 | 30° C | 68% | 1004.9 hPa | 0 mm | 1.34 m/s, 160° | 226 W/m² | - |
| 1778022024 | 30.56° C | 67% | 1005.1 hPa | 0 mm | 3.58 m/s, 211° | 250 W/m² | - |
| 1778021720 | 30.56° C | 67% | 1005 hPa | 0 mm | 0.45 m/s, 102° | 227 W/m² | - |
| 1778021416 | 30.56° C | 67% | 1004.9 hPa | 0 mm | 1.34 m/s, 192° | 174 W/m² | - |
| 1778021114 | 31.11° C | 64% | 1004.7 hPa | 0 mm | 2.24 m/s, 181° | 148 W/m² | - |
| 1778020811 | 31.11° C | 59% | 1004.7 hPa | 0 mm | 4.02 m/s, 209° | 228 W/m² | - |
| 1778020508 | 31.67° C | 58% | 1004.7 hPa | 0 mm | 2.24 m/s, 182° | 239 W/m² | - |
* Rain latest hour (hover to see other rain measurements)
** Current wind speed in m/s (hover to see current wind gust speed)